Location: Benalto
(52.3088°N, 114.2787°W)
Time: 11:30:55
(UTC+00:00)

N. Korean satellite - Pass Details

Date: 04 December 2021
Orbit: 447 x 491 km, 97.3° (Epoch: 21 January)

Event Time Altitude Azimuth Distance (km) Brightness Sun altitude
Rises 14:12:04 0° 0° (N) 2,477 9.9 -11.0°
Reaches altitude 10° 14:14:35 10° 341° (NNW) 1,593 8.8 -10.7°
Maximum altitude 14:16:54 18° 298° (WNW) 1,197 7.9 -10.3°
Drops below altitude 10° 14:19:13 10° 254° (WSW) 1,578 8.7 -10.0°
Sets 14:21:42 0° 235° (SW) 2,444 9.8 -9.7°
